User: anonymous   Login
Location: Unspecified
(0.0000°N, 0.0000°E)
Time: 10:01:46
(UTC+00:00)
Language:

STARLINK-2731 - Orbit

View from above orbital plane
View from above orbital plane
View from above satellite
View from above satellite

Ground track
Ground track

The orbit is defined by the following mean orbital elements,

1 48651U          26145.20882885 +.00000000 +00000-0 +47929-4 0 00001
2 48651  53.1602 118.0502 0001130  79.4241 280.6887 15.31700985    00
Epoch (UTC): 25 May 2026 05:00:42
Eccentricity: 0.0001130
inclination: 53.1602°
perigee height: 470 km
apogee height: 472 km
right ascension of ascending node: 118.0502°
argument of perigee: 79.4241°
revolutions per day: 15.31700985
mean anomaly at epoch: 280.6887°

The dashed part of the orbit path shows where the satellite is in the earth's shadow,  

DLR